Regional Weather Roundup
Issued by NWS

Home | Current Version | Previous Version | Graphics & Text | Print | Product List | Glossary On
Versions: 1 2 3 4 5 6 7 8 9 10 11 12 13 14 15 16 17 18 19 20 21 22 23 24 25 26 27 28 29 30 31 32 33 34 35 36 37 38 39 40 41 42 43 44 45 46 47 48 49 50
000
ASUS43 KBIS 230110
RWRND

NORTH DAKOTA REGIONAL WEATHER ROUNDUP
NATIONAL WEATHER SERVICE BISMARCK ND
800 PM CDT WED MAR 22 2017

NOTE: "FAIR" INDICATES FEW OR NO CLOUDS BELOW 12,000 FEET WITH NO
SIGNIFICANT WEATHER AND/OR OBSTRUCTIONS TO VISIBILITY.


NDZ001>003-009>011-017-230200-
NORTHWEST NORTH DAKOTA

CITY           SKY/WX    TMP DP  RH WIND       PRES   REMARKS
WILLISTON      FAIR      49  32  52 S5        29.78S
MINOT          FAIR      38  30  73 SE15      29.84F
MINOT AFB      CLOUDY    37  31  79 SE13      29.83F
$$

NDZ018>021-031>035-040>046-230200-
SOUTHWEST NORTH DAKOTA

CITY           SKY/WX    TMP DP  RH WIND       PRES   REMARKS
BISMARCK       FAIR      38  29  70 SE12      29.89R
DICKINSON      FAIR      48  36  63 SE6       29.76S
GARRISON         N/A     35  30  82 SE14      29.85R
HETTINGER ARPT CLEAR     52  37  56 SE8       29.80R
$$

NDZ004>008-012>016-024-026-027-054-230200-
NORTHEAST NORTH DAKOTA

CITY           SKY/WX    TMP DP  RH WIND       PRES   REMARKS
GRAND FORKS    CLOUDY    31  17  56 SE16      30.10F WCI  20
GRND FRKS AFB  CLOUDY    31  20  61 S20G29    30.08F WCI  19
DEVILS LAKE    FAIR      29  24  82 S22G29    29.99S WCI  15
$$

NDZ022-023-025-028>030-036>039-047>053-230200-
SOUTHEAST NORTH DAKOTA

CITY           SKY/WX    TMP DP  RH WIND       PRES   REMARKS
FARGO          CLOUDY    34  23  64 SE25G36   30.12F
JAMESTOWN      FAIR      30  25  81 SE18      29.99F WCI  18
$$





USA.gov is the U.S. government's official web portal to all federal, state and local government web resources and services.